AirNav   Duncan Aviation - Near you to keep you 
flying
 
 1018 users online  

WY00 Red Reflet Ranch Airport
Ten Sleep, Wyoming, USA

GOING TO TEN SLEEP?


FAA INFORMATION EFFECTIVE 15 JULY 2021

Location

FAA Identifier: WY00
Lat/Long: 43-58-03.7361N 107-22-46.1391W
43-58.062268N 107-22.768985W
43.9677045,-107.3794831
(estimated)
Elevation: 4732.4 ft. / 1442 m (estimated)
Variation: 11E (2010)
From city: 5 miles S of TEN SLEEP, WY
Time zone: UTC -6 (UTC -7 during Standard Time)
Zip code: 82442

Airport Operations

Airport use: Private use. Permission required prior to landing
Activation date: 02/2005
Control tower: no
ARTCC: SALT LAKE CITY CENTER
FSS: CASPER FLIGHT SERVICE STATION
NOTAMs facility: FDC (NOTAM-D service not available)
Attendance: UNATNDD
Wind indicator: yes
Segmented circle: no
Lights: ACTVT VASI RY 10 - 122.9.

Nearby radio navigation aids

VOR radial/distance  VOR name  Freq  Var
RLYr077/24.7WORLAND VOR/DME114.8013E

Airport Services

Runway Information

Runway 10/28

Dimensions: 5000 x 75 ft. / 1524 x 23 m
Surface: asphalt
RUNWAY 10  RUNWAY 28
Latitude: 43-58.224948N43-57.899587N
Longitude: 107-23.292342W107-22.245627W
Elevation: 4575.9 ft.4732.4 ft.
Traffic pattern: leftleft
Visual slope indicator: pulsating/steady burning VASI on right (3.00 degrees glide path)
Touchdown point: yes, no lightsyes, no lights

Airport Ownership and Management from official FAA records

Ownership: Privately-owned
Owner: ROBERT B. KAPLAN
10 LODGE ROAD
TEN SLEEP, WY 82442
Phone (307) 366-2340
Manager: LAURENCE KAPLAN
595 STATE HWY 434
TEN SLEEP, WY 82442
Phone (307) 366-2340

Airport Operational Statistics

Aircraft based on the field: 5
Single engine airplanes: 2
Jet airplanes: 2
Helicopters: 1
    

Additional Remarks

LAND RY 10 & DEPART RY 28 DUE TO HIGH TERRAIN ALL QUADRANTS & RY SLOPE.
NO PHONE AT ARPT
NO USE WO PRIOR PERMISSON.
FOR CD CTC SALT LAKE ARTCC AT 801-320-2568.

Instrument Procedures

There are no published instrument procedures at WY00.

Some nearby airports with instrument procedures:

KWRL - Worland Municipal Airport (25 nm W)
KBYG - Johnson County Airport (38 nm NE)
KGEY - South Big Horn County Airport (45 nm NW)
KHSG - Hot Springs County Airport (46 nm W)
KSHR - Sheridan County Airport (51 nm N)
 
Loc | Ops | Rwys | IFR | FBO | Links
Com | Nav | Svcs | Stats | Notes
Area around WY00 (Red Reflet Ranch Airport)
 
Road maps at: MapQuest Bing Google
 
Aerial photo
WARNING: Photo may not be current or correct
Aerial photo of WY00 (Red Reflet Ranch Airport)
Photo taken 14-May-2010

Do you have a better or more recent aerial photo of Red Reflet Ranch Airport that you would like to share? If so, please send us your photo.

 
Sectional chart

 
Airport distance calculator
Flying to Red Reflet Ranch Airport? Find the distance to fly.

From to WY00

Sunrise and sunset
Times for 04-Aug-2021
 Local
(UTC-6)
 Zulu
(UTC)
Morning civil twilight05:3011:30
Sunrise06:0212:02
Sunset20:2902:29
Evening civil twilight21:0203:02

Current date and time
Zulu (UTC)  05-Aug-2021 02:19:13
Local (UTC-6)  04-Aug-2021 20:19:13
 
METAR
KWRL 
25nm W 
050153Z AUTO 29007KT 270V340 6SM HZ SCT110 26/11 A3011 RMK AO2 SLP159 T02560106
KBYG 
38nm NE 
050153Z AUTO 24005KT 8SM CLR 23/13 A3018 RMK AO2 SLP161 T02280133 $
KGEY 
45nm NW 
050153Z AUTO 24012KT 7SM CLR 28/07 A3007 RMK AO2 SLP145 T02830072
KHSG 
46nm W 
050155Z AUTO 28005KT 10SM CLR 22/13 A3017 RMK AO2 T02180130
KTBX 
48nm SW 
050155Z AUTO 10SM CLR 21/00 A3044 RMK AO2
TAF
KWRL 
25nm W 
041720Z 0418/0518 34006KT P6SM FEW120 FM042300 35006KT P6SM VCSH SCT100 BKN120 FM050400 20009KT P6SM FEW150 FM051700 26007KT P6SM FEW200
NOTAMs
Click for the latest NOTAMs
NOTAMs are issued by the DoD/FAA and will open in a separate window not controlled by AirNav.

 

 
 

Would you like to see your business listed on this page?

 If your business provides an interesting product or service to pilots, flight crews, aircraft, or users of the Red Reflet Ranch Airport, you should consider listing it here.  To start the listing process, click on the button below
 
Add a business
 

Other Pages about Red Reflet Ranch Airport

Update a link
 
Copyright © AirNav, LLC. All rights reserved. Privacy Policy  Contact